Regional Weather Roundup
Issued by NWS

Home | Current Version | Previous Version | Graphics & Text | Print | Product List | Glossary On
Versions: 1 2 3 4 5 6 7 8 9 10 11 12 13 14 15 16 17 18 19 20 21 22 23 24 25 26 27 28 29 30 31 32 33 34 35 36 37 38 39 40 41 42 43 44 45 46 47 48 49 50
000
ASUS44 KMEG 281400
RWRTN
TENNESSEE HOURLY STATE WEATHER ROUNDUP
NATIONAL WEATHER SERVICE MEMPHIS TN
900 AM CDT SAT MAY 28 2016

TNZ002-004-019-021-049-052-054-088>092-281500-
WEST TENNESSEE

CITY           SKY/WX    TMP DP  RH WIND       PRES   REMARKS
MEMPHIS INTL   PTSUNNY   76  67  73 S9        30.00R
NWS MEMPHIS      N/A     76 N/A N/A MISG        N/A
JACKSON        CLOUDY    75  66  73 S9G18     30.03R
DYERSBURG      CLOUDY    73  66  78 S7        30.00R
UNION CITY     MOSUNNY   73  68  83 SE9       30.00R
PARIS          MOSUNNY   73  64  73 SE10      30.03S
LEXINGTON      MOSUNNY   75  66  73 SE7       30.04S
$$

TNZ008-025-027-028-033-062-065-066-281500-
NORTH MIDDLE TENNESSEE

CITY           SKY/WX    TMP DP  RH WIND       PRES   REMARKS
NASHVILLE      CLOUDY    76  62  62 S6        30.10R
CLARKSVILLE    CLOUDY    77  67  71 S7        30.06R
COOKEVILLE     SUNNY     75  64  69 S8        30.13S
CROSSVILLE     CLOUDY    72  61  68 VRB6      30.19R
$$

TNZ061-075-076-078-094-096-097-281500-
SOUTH MIDDLE TENNESSEE

CITY           SKY/WX    TMP DP  RH WIND       PRES   REMARKS
TULLAHOMA      SUNNY     70  66  88 SE3       30.15R
WINCHESTER     SUNNY     72  63  73 SE6       30.14R
MCMINNVILLE    SUNNY     73  63  68 CALM      30.14S
COLUMBIA       SUNNY    N/A N/A N/A SE5       30.08R
SHELBYVILLE    SUNNY     73  64  73 SE7       30.13R
$$

TNZ017-018-042-046-047-281500-
NORTHEAST TENNESSEE

CITY           SKY/WX    TMP DP  RH WIND       PRES   REMARKS
TRI CITIES     SUNNY     74  63  68 CALM      30.20R
$$

TNZ012-013-036-069-073-074-281500-
CENTRAL EAST TENNESSEE

CITY           SKY/WX    TMP DP  RH WIND       PRES   REMARKS
KNOXVILLE      PTSUNNY   69  67  93 N3        30.17R FOG
OAK RIDGE      CLOUDY    72  66  81 CALM      30.19R
GATLINBURG     MOSUNNY   70  64  83 CALM      30.17R
$$

TNZ083-085-099-281500-
SOUTHEAST TENNESSEE

CITY           SKY/WX    TMP DP  RH WIND       PRES   REMARKS
CHATTANOOGA    PTSUNNY   76  61  59 S7        30.16R
$$

SKY/WX REPORTED AS FAIR MEANS FEW OR NO CLOUDS BELOW
12 THOUSAND FEET.





USA.gov is the U.S. government's official web portal to all federal, state and local government web resources and services.